Meteo Giornale » Osservazioni meteo Gran Bretagna » Blackpool

ore: 19:20 - Osservazioni Meteo Blackpool
Lat. 53° 46' N Lon. 3° 2' W Alt. 10 metri s.l.m.

nuvoloso

17 °C

Nuvoloso

Temp. 24 Ore

16 °C

18 °C

Nord-Ovest

18.5 Km/h

Dew point 12 °C

Umidità 72 %

Visibilità  10 Km

Il sole sorge alle ore 06:19

Il sole tramonta alle ore 20:05

Data e Ora Cielo e Fenomeni T °C DP °C Um. % Pres. hPa Vis. km Vento km/h
Oggi h: 19:20 nuvoloso Nuvoloso 17 12 72 1015 10 NO 18.5
Oggi h: 18:50 molto_nuvoloso Molto Nuvoloso 17 12 72 1015 10 NO 14.8
Oggi h: 18:20 molto_nuvoloso Molto Nuvoloso 17 12 72 1015 10 NO 20.3
Oggi h: 17:50 molto_nuvoloso Molto Nuvoloso 17 12 72 1014 10 NO 22.2
Oggi h: 17:20 molto_nuvoloso Molto Nuvoloso 17 11 67 1014 10 NO 24
Oggi h: 16:50 molto_nuvoloso Molto Nuvoloso 17 12 72 1014 10 NO 27.8
Oggi h: 16:20 molto_nuvoloso Molto Nuvoloso 17 12 72 1013 10 NO 27.8
Oggi h: 15:50 molto_nuvoloso Pioggia nelle vicinanze 17 12 72 1013 10 N/NO 24
Oggi h: 15:20 molto_nuvoloso Molto Nuvoloso 18 13 72 1013 10 O/NO 27.8
Oggi h: 14:50 molto_nuvoloso Molto Nuvoloso 18 12 67 1013 10 NO 27.8
Oggi h: 14:20 molto_nuvoloso Molto Nuvoloso 18 13 72 1012 10 NO 27.8
Oggi h: 13:50 nuvoloso Nuvoloso 18 13 72 1012 10 NO 29.6
Oggi h: 13:20 nuvoloso Nuvoloso 18 13 72 1011 10 NO 29.6
Oggi h: 12:50 nuvoloso Nuvoloso 18 14 77 1011 10 NO 29.6
Oggi h: 12:20 molto_nuvoloso Pioggia nelle vicinanze 18 14 77 1010 10 NO 29.6
Oggi h: 11:50 molto_nuvoloso Pioggia nelle vicinanze 18 14 77 1010 10 NO 31.5
Oggi h: 11:20 nuvoloso Nuvoloso 18 14 77 1009 10 N/NO 33.3
Oggi h: 10:50 nuvoloso Pioggia nelle vicinanze 18 14 77 1009 10 N/NO 27.8
Oggi h: 10:20 nuvoloso Pioggia nelle vicinanze 17 15 88 1008 10 N/NO 24
Oggi h: 09:50 nuvoloso_piovaschi Pioggia 17 15 88 1008 10 N/NO 27.8
Oggi h: 09:20 nuvoloso_piovaschi Pioggia 17 15 88 1007 9 N/NO 22.2
Oggi h: 08:50 nuvoloso_piovaschi Pioggia 17 14 82 1007 6 NO 25.9
Oggi h: 08:20 nuvoloso Pioggia nelle vicinanze 17 14 82 1006 10 NO 22.2
Oggi h: 07:50 nuvoloso Pioggia nelle vicinanze 17 15 88 1005 10 N/NO 14.8
Oggi h: 07:20 nuvoloso Pioggia nelle vicinanze 17 15 88 1005 10 NO 14.8
Oggi h: 06:50 nuvoloso Pioggia nelle vicinanze 16 14 87 1005 10 O/NO 14.8
Oggi h: 06:20 nuvoloso Pioggia nelle vicinanze 16 14 87 1004 9 O/NO 14.8
Ieri h: 19:50 nuvoloso_piovaschi Pioggia 17 15 88 1002 10 S 9.3